Погода в Головкине

Россия / Калининградская область     54°58′52″N   21°16′39″E
темп.,
°C
ветер,
м/с
пор.,
м/с
влажн.,
%
обл.,
%
осадки,
мм/ч
давл.,
гПа
погр.,
м
25 июля, вс
вс2523:00+17всв34762 0.0 1016121
02:00+16вюв35783 0.0 1017132
05:00+16в45780 0.0 1016127
08:00+20в466686 0.0 1017270
11:00+24вюв4556100 0.0 1017548
14:00+26вюв355029 0.0 1016747
17:00+27в4652100 0.0 1015613
20:00+24юв3668100 0.0 1016147
26 июля, пн
пн2623:00+21в4877100 0.0 1016152
02:00+19вюв4881100 0.0 1016161
05:00+19вюв4777100 0.0 1016175
08:00+22вюв4868100 0.0 1016296
11:00+26вюв4755100 0.0 1016484
14:00+28вюв584652 0.0 10151086
17:00+26вюв595498 0.0 1014332
20:00+24вюв486444 0.0 1014159
27 июля, вт
вт2723:00+22вюв5127035 0.1 1014272
02:00+20вюв4980100 0.2 1013198
05:00+19вюв4782100 0.0 1012250
08:00+20вюв578776 0.3 1012410
11:00+20вюв3490100 0.2 1011450
14:00+21юз1289100 0.8 1011306
17:00+22сз1279100 0.1 1010280
20:00+21зсз5786100 0.6 1010400
28 июля, ср
ср2823:00+21з468890 0.0 1011327
02:00+20зюз59892 0.4 1011301
05:00+21зюз5886100 0.2 1011288
08:00+22зюз5678100 0.7 1011320
11:00+24зсз46675 0.6 1011645
14:00+23зсз67705 1.6 1011701
17:00+23зсз576785 0.1 1011488
20:00+22зсз3574100 0.2 1011206
29 июля, чт
чт2923:00+21з4774100 0.0 1012318
02:00+20з4677100 0.1 1011346
05:00+20зюз467836 0.4 1012341
08:00+21зюз45725 0.7 1012360
11:00+23зсз356319 0.2 1012761
14:00+23зсз356516 0.9 1011740
17:00+23ссз456632 0.1 1011356
20:00+21ссз227698 0.1 1010169